Radiation Dose at Monitoring Post of Fukushima Daini Nuclear Power Station
Date,Time,MP-1(microSv/h),MP-2(microSv/h),MP-3(microSv/h),MP-4(microSv/h),MP-5(microSv/h),MP-6(microSv/h),MP-7(microSv/h),Wind Direction,Wind Velocity(m/s),Rain
2015/02/20,00:00,0.525,0.321,0.542,0.491,0.536,0.247,0.218,north,6.6,Yes
2015/02/20,00:10,0.528,0.321,0.541,0.491,0.534,0.247,0.217,north,6.9,Yes
2015/02/20,00:20,0.525,0.321,0.543,0.492,0.535,0.246,0.217,north-northwest,5.8,Yes
2015/02/20,00:30,0.526,0.321,0.543,0.494,0.537,0.247,0.218,north-northwest,5.8,Yes
2015/02/20,00:40,0.526,0.321,0.541,0.492,0.535,0.246,0.217,north-northwest,6.7,Yes
2015/02/20,00:50,0.526,0.322,0.540,0.492,0.536,0.248,0.218,north-northwest,6.6,Yes
2015/02/20,01:00,0.527,0.322,0.540,0.491,0.533,0.247,0.217,north-northwest,6.1,Yes
2015/02/20,01:10,0.529,0.321,0.542,0.491,0.535,0.248,0.218,north-northwest,6.6,Yes
2015/02/20,01:20,0.527,0.321,0.541,0.491,0.534,0.247,0.218,north-northwest,6.8,Yes
2015/02/20,01:30,0.527,0.320,0.541,0.492,0.536,0.247,0.217,north-northwest,6.2,Yes
2015/02/20,01:40,0.529,0.321,0.542,0.491,0.535,0.247,0.217,north,7.2,Yes
2015/02/20,01:50,0.528,0.322,0.544,0.494,0.536,0.247,0.216,north,6.0,Yes
2015/02/20,02:00,0.528,0.321,0.542,0.492,0.533,0.246,0.217,north,6.3,Yes
2015/02/20,02:10,0.528,0.322,0.542,0.490,0.536,0.247,0.218,north,5.9,Yes
2015/02/20,02:20,0.528,0.322,0.542,0.491,0.536,0.246,0.217,north,6.0,No
2015/02/20,02:30,0.529,0.322,0.541,0.491,0.533,0.247,0.217,north,6.4,Yes
2015/02/20,02:40,0.527,0.323,0.542,0.493,0.534,0.247,0.216,north,6.4,Yes
2015/02/20,02:50,0.528,0.321,0.541,0.493,0.536,0.246,0.217,north-northwest,5.8,Yes
2015/02/20,03:00,0.528,0.320,0.543,0.489,0.537,0.248,0.217,north,5.7,Yes
2015/02/20,03:10,0.529,0.321,0.543,0.493,0.536,0.247,0.217,north,5.8,Yes
2015/02/20,03:20,0.528,0.321,0.542,0.492,0.534,0.247,0.217,north,5.9,Yes
2015/02/20,03:30,0.528,0.322,0.541,0.491,0.534,0.247,0.217,north-northwest,5.8,Yes
2015/02/20,03:40,0.528,0.320,0.541,0.492,0.537,0.247,0.217,north,6.1,No
2015/02/20,03:50,0.528,0.320,0.542,0.493,0.535,0.247,0.217,north-northwest,5.9,No
2015/02/20,04:00,0.526,0.321,0.544,0.492,0.534,0.246,0.217,north,5.6,No
2015/02/20,04:10,0.528,0.322,0.544,0.493,0.535,0.246,0.217,north,6.2,No
2015/02/20,04:20,0.528,0.321,0.542,0.493,0.538,0.247,0.218,north,6.7,No
2015/02/20,04:30,0.529,0.322,0.545,0.493,0.538,0.246,0.218,north-northwest,5.9,No
2015/02/20,04:40,0.528,0.324,0.545,0.493,0.537,0.247,0.216,north-northwest,6.5,No
2015/02/20,04:50,0.530,0.323,0.544,0.493,0.535,0.247,0.217,north-northwest,6.7,No
2015/02/20,05:00,0.529,0.322,0.543,0.494,0.536,0.247,0.217,north,7.6,No
2015/02/20,05:10,0.529,0.321,0.544,0.494,0.540,0.247,0.219,north,8.1,No
2015/02/20,05:20,0.530,0.323,0.544,0.494,0.538,0.247,0.218,north-northwest,7.0,No
2015/02/20,05:30,0.530,0.323,0.543,0.493,0.536,0.247,0.218,north-northwest,5.6,No
2015/02/20,05:40,0.530,0.324,0.543,0.494,0.535,0.249,0.217,north-northwest,5.8,No
2015/02/20,05:50,0.529,0.322,0.544,0.493,0.536,0.247,0.217,north-northwest,6.1,No
2015/02/20,06:00,0.528,0.322,0.544,0.495,0.537,0.246,0.218,north-northwest,6.2,No
2015/02/20,06:10,0.528,0.323,0.544,0.494,0.538,0.248,0.218,north-northwest,7.3,No
2015/02/20,06:20,0.530,0.324,0.543,0.493,0.537,0.248,0.219,north-northwest,7.2,No
2015/02/20,06:30,0.530,0.323,0.543,0.493,0.537,0.247,0.219,north-northwest,6.7,No
2015/02/20,06:40,0.529,0.322,0.543,0.495,0.537,0.247,0.218,north-northwest,6.8,No
2015/02/20,06:50,0.529,0.324,0.543,0.493,0.538,0.248,0.218,north-northwest,7.3,No
2015/02/20,07:00,0.530,0.323,0.545,0.492,0.538,0.248,0.218,north-northwest,7.2,No
2015/02/20,07:10,0.530,0.323,0.545,0.493,0.535,0.247,0.218,north-northwest,7.7,No
2015/02/20,07:20,0.531,0.322,0.544,0.494,0.535,0.248,0.219,north-northwest,7.4,No
2015/02/20,07:30,0.529,0.322,0.545,0.496,0.538,0.247,0.218,north-northwest,6.6,No
2015/02/20,07:40,0.530,0.322,0.546,0.494,0.539,0.248,0.218,north-northwest,7.3,No
2015/02/20,07:50,0.530,0.323,0.545,0.492,0.537,0.246,0.217,north-northwest,5.6,No
2015/02/20,08:00,0.529,0.323,0.545,0.494,0.536,0.248,0.217,north-northwest,6.9,No
2015/02/20,08:10,0.529,0.323,0.543,0.495,0.537,0.248,0.218,north-northwest,6.5,No
2015/02/20,08:20,0.529,0.322,0.545,0.493,0.538,0.249,0.218,north-northwest,6.6,No
2015/02/20,08:30,0.532,0.321,0.545,0.493,0.538,0.247,0.216,north-northwest,5.5,No
2015/02/20,08:40,0.530,0.323,0.547,0.497,0.536,0.248,0.218,north-northwest,5.6,No
2015/02/20,08:50,0.530,0.322,0.543,0.496,0.537,0.247,0.218,north,5.9,No
2015/02/20,09:00,0.530,0.322,0.545,0.493,0.538,0.248,0.219,north,7.1,No
2015/02/20,09:10,0.529,0.322,0.545,0.496,0.540,0.247,0.218,north-northwest,5.3,No
2015/02/20,09:20,0.529,0.324,0.546,0.494,0.539,0.248,0.217,north,5.7,No
2015/02/20,09:30,0.530,0.322,0.536,0.494,0.537,0.248,0.219,north,5.0,No
2015/02/20,09:40,0.531,0.322,0.519,0.496,0.537,0.247,0.218,north,6.0,No
2015/02/20,09:50,0.529,0.323,0.519,0.492,0.538,0.247,0.219,north-northeast,6.7,No
2015/02/20,10:00,0.529,0.322,0.517,0.497,0.536,0.248,0.219,north,6.8,No
2015/02/20,10:10,0.532,0.322,0.517,0.494,0.537,0.247,0.218,north-northeast,8.1,No
2015/02/20,10:20,0.529,0.325,0.516,0.496,0.538,0.247,0.221,north-northeast,7.8,No
2015/02/20,10:30,0.530,0.323,0.515,0.495,0.538,0.249,0.221,north-northeast,8.3,No
2015/02/20,10:40,0.533,0.321,0.517,0.494,0.539,0.249,0.220,northeast,6.3,No
2015/02/20,10:50,0.530,0.323,0.516,0.496,0.541,0.249,0.220,northeast,6.2,No
2015/02/20,11:00,0.532,0.323,0.515,0.495,0.538,0.248,0.221,north-northeast,6.6,No
2015/02/20,11:10,0.532,0.324,0.518,0.500,0.542,0.249,0.220,northeast,6.6,No
2015/02/20,11:20,0.528,0.324,0.514,0.496,0.541,0.249,0.221,north-northeast,6.1,No
2015/02/20,11:30,0.533,0.323,0.516,0.498,0.540,0.249,0.221,northeast,6.6,No
2015/02/20,11:40,0.531,0.324,0.513,0.497,0.541,0.249,0.222,north-northeast,5.3,No
2015/02/20,11:50,0.532,0.323,0.533,0.495,0.538,0.249,0.221,north-northeast,6.1,No
2015/02/20,12:00,0.534,0.323,0.547,0.499,0.541,0.249,0.222,northeast,6.0,No
2015/02/20,12:10,0.530,0.324,0.543,0.495,0.540,0.249,0.220,north-northeast,5.2,No
2015/02/20,12:20,0.532,0.323,0.545,0.499,0.540,0.249,0.220,north-northeast,5.3,No
2015/02/20,12:30,0.533,0.324,0.545,0.495,0.543,0.249,0.221,north-northeast,4.5,No
2015/02/20,12:40,0.533,0.323,0.542,0.501,0.540,0.249,0.222,north-northeast,6.2,No
2015/02/20,12:50,0.535,0.323,0.545,0.497,0.543,0.250,0.221,north-northeast,5.1,No
2015/02/20,13:00,0.532,0.324,0.544,0.499,0.542,0.249,0.222,north-northeast,4.9,No
2015/02/20,13:10,0.536,0.324,0.547,0.499,0.540,0.250,0.222,north-northeast,5.3,No
2015/02/20,13:20,0.534,0.324,0.547,0.499,0.545,0.250,0.221,north,4.7,Yes
2015/02/20,13:30,0.533,0.328,0.547,0.502,0.540,0.250,0.221,north-northeast,5.6,Yes
2015/02/20,13:40,0.534,0.325,0.522,0.499,0.543,0.249,0.222,north-northeast,4.7,No
2015/02/20,13:50,0.535,0.325,0.505,0.499,0.542,0.251,0.221,northeast,5.9,Yes
2015/02/20,14:00,0.533,0.325,0.505,0.499,0.540,0.249,0.221,north-northeast,5.3,Yes
2015/02/20,14:10,0.536,0.324,0.506,0.498,0.543,0.250,0.221,north-northeast,5.2,No
2015/02/20,14:20,0.534,0.324,0.504,0.501,0.541,0.251,0.221,north-northeast,5.7,No
2015/02/20,14:30,0.533,0.325,0.507,0.499,0.541,0.249,0.222,north,4.4,No
2015/02/20,14:40,0.534,0.324,0.507,0.500,0.542,0.250,0.223,north-northeast,5.1,No
2015/02/20,14:50,0.534,0.325,0.505,0.501,0.542,0.251,0.223,north-northeast,4.5,No
2015/02/20,15:00,0.533,0.325,0.506,0.500,0.540,0.249,0.222,north-northeast,4.9,No
2015/02/20,15:10,0.535,0.325,0.511,0.498,0.542,0.249,0.222,north-northeast,6.3,No
2015/02/20,15:20,0.536,0.324,0.533,0.500,0.542,0.251,0.222,north-northeast,5.6,Yes
2015/02/20,15:30,0.533,0.325,0.522,0.499,0.543,0.250,0.223,north,6.0,Yes
2015/02/20,15:40,0.535,0.325,0.537,0.501,0.543,0.251,0.223,north,5.6,Yes
2015/02/20,15:50,0.537,0.325,0.546,0.502,0.542,0.252,0.223,north,6.0,Yes
2015/02/20,16:00,0.535,0.325,0.544,0.501,0.542,0.249,0.222,north,5.6,Yes
2015/02/20,16:10,0.534,0.326,0.547,0.500,0.540,0.249,0.222,north,5.7,Yes
2015/02/20,16:20,0.536,0.327,0.548,0.502,0.543,0.251,0.222,north,4.0,Yes
2015/02/20,16:30,0.535,0.326,0.546,0.500,0.542,0.251,0.222,north,4.4,Yes
2015/02/20,16:40,0.534,0.327,0.545,0.500,0.542,0.250,0.222,north,2.9,No
2015/02/20,16:50,0.535,0.325,0.547,0.501,0.541,0.251,0.223,north,3.1,No
2015/02/20,17:00,0.536,0.327,0.547,0.502,0.543,0.251,0.223,north,2.2,No
2015/02/20,17:10,0.533,0.325,0.547,0.499,0.541,0.250,0.222,north-northwest,1.7,Yes
2015/02/20,17:20,0.534,0.326,0.545,0.499,0.540,0.249,0.223,north-northwest,0.7,Yes
2015/02/20,17:30,0.535,0.324,0.547,0.500,0.542,0.251,0.222,west-northwest,0.8,No
2015/02/20,17:40,0.534,0.325,0.546,0.501,0.542,0.251,0.222,northwest,1.4,No
2015/02/20,17:50,0.534,0.325,0.544,0.502,0.541,0.250,0.222,north,2.5,Yes
2015/02/20,18:00,0.534,0.326,0.547,0.501,0.540,0.250,0.221,north,3.6,Yes
2015/02/20,18:10,0.534,0.325,0.548,0.499,0.542,0.250,0.223,north,4.0,Yes
2015/02/20,18:20,0.534,0.325,0.547,0.502,0.543,0.250,0.223,north,4.6,Yes
2015/02/20,18:30,0.533,0.325,0.546,0.500,0.540,0.250,0.222,north,4.4,Yes
2015/02/20,18:40,0.536,0.326,0.546,0.500,0.541,0.251,0.222,north-northwest,3.6,Yes
2015/02/20,18:50,0.535,0.324,0.547,0.500,0.541,0.250,0.223,north-northwest,3.3,Yes
2015/02/20,19:00,0.533,0.326,0.546,0.500,0.541,0.250,0.222,north-northwest,2.8,Yes
2015/02/20,19:10,0.534,0.325,0.546,0.499,0.539,0.250,0.222,north-northwest,3.9,Yes
2015/02/20,19:20,0.535,0.326,0.547,0.500,0.539,0.249,0.221,north-northwest,4.4,Yes
2015/02/20,19:30,0.533,0.324,0.547,0.501,0.540,0.250,0.222,north-northwest,4.6,Yes
2015/02/20,19:40,0.534,0.324,0.547,0.500,0.541,0.250,0.223,north,4.7,Yes
2015/02/20,19:50,0.533,0.325,0.546,0.498,0.539,0.250,0.220,north,4.5,Yes
2015/02/20,20:00,0.534,0.325,0.548,0.500,0.539,0.249,0.223,north,3.9,Yes
2015/02/20,20:10,0.531,0.326,0.546,0.502,0.542,0.251,0.222,north,4.4,Yes
2015/02/20,20:20,0.533,0.325,0.547,0.498,0.540,0.250,0.222,north,5.1,Yes
2015/02/20,20:30,0.535,0.325,0.546,0.499,0.540,0.249,0.223,north,4.4,Yes
2015/02/20,20:40,0.533,0.325,0.548,0.500,0.539,0.251,0.222,north-northwest,3.9,Yes
2015/02/20,20:50,0.533,0.325,0.546,0.499,0.540,0.249,0.221,north-northwest,4.5,Yes
2015/02/20,21:00,0.532,0.324,0.546,0.498,0.542,0.249,0.222,north-northwest,4.6,No
2015/02/20,21:10,0.534,0.325,0.545,0.501,0.539,0.251,0.221,north-northwest,4.7,No
2015/02/20,21:20,0.534,0.326,0.547,0.500,0.539,0.251,0.222,north-northwest,4.5,No
2015/02/20,21:30,0.534,0.325,0.547,0.498,0.539,0.249,0.222,north-northwest,4.2,No
2015/02/20,21:40,0.533,0.324,0.547,0.498,0.542,0.251,0.223,north-northwest,4.3,No
2015/02/20,21:50,0.534,0.324,0.545,0.500,0.540,0.251,0.222,north-northwest,4.4,No
2015/02/20,22:00,0.533,0.325,0.546,0.500,0.540,0.251,0.223,north-northwest,3.3,No
2015/02/20,22:10,0.534,0.325,0.546,0.501,0.539,0.251,0.222,north-northwest,4.1,No
2015/02/20,22:20,0.533,0.324,0.545,0.498,0.540,0.249,0.222,north-northwest,4.2,No
2015/02/20,22:30,0.534,0.324,0.546,0.498,0.539,0.250,0.222,north-northwest,4.3,No
2015/02/20,22:40,0.532,0.325,0.545,0.501,0.539,0.249,0.222,north,4.2,No
2015/02/20,22:50,0.533,0.326,0.548,0.500,0.538,0.250,0.223,north-northwest,3.6,No
2015/02/20,23:00,0.534,0.325,0.547,0.498,0.539,0.251,0.221,north-northwest,4.5,No
2015/02/20,23:10,0.534,0.325,0.546,0.499,0.541,0.251,0.222,north-northwest,4.4,No
2015/02/20,23:20,0.533,0.325,0.546,0.499,0.541,0.250,0.223,north-northwest,3.6,No
2015/02/20,23:30,0.533,0.324,0.548,0.502,0.540,0.250,0.222,north-northwest,3.3,No
2015/02/20,23:40,0.535,0.326,0.547,0.498,0.539,0.250,0.223,north-northwest,3.0,No
2015/02/20,23:50,0.533,0.325,0.546,0.500,0.540,0.251,0.223,north-northwest,3.2,No
